• In Italy
  • List of Countries
  • For 7 days
  • Water Temperature
  • Satellite Maps
  • Weather Map
  • Weather Widgets
  • user-avatar
    Login

    Hourly Weather Northallerton

    Today, 24 November, Friday

    Time Temperature Precipitation Wind Pressure Humidity
    00:00 +1°C° 0 mm 4 mps 748 mmHg 81%
    01:00 +2°C° 0 mm 3 mps 748 mmHg 82%
    02:00 +2°C° 0 mm 3 mps 749 mmHg 83%
    03:00 +2°C° 0 mm 3 mps 749 mmHg 83%
    04:00 +1°C° 0 mm 3 mps 749 mmHg 84%
    05:00 +1°C° 0 mm 3 mps 750 mmHg 84%
    06:00 +1°C° 0 mm 3 mps 750 mmHg 85%
    07:00 +1°C° 0 mm 3 mps 750 mmHg 84%
    08:00 +1°C° 0 mm 3 mps 751 mmHg 84%
    09:00 +2°C° 0 mm 3 mps 751 mmHg 83%
    10:00 +3°C° 0 mm 4 mps 752 mmHg 78%
    11:00 +4°C° 0 mm 4 mps 752 mmHg 73%
    12:00 +5°C° 0 mm 5 mps 752 mmHg 69%
    13:00 +5°C° 0 mm 4 mps 752 mmHg 70%
    14:00 +5°C° 0 mm 4 mps 752 mmHg 72%
    15:00 +4°C° 0 mm 3 mps 752 mmHg 74%
    16:00 +4°C° 0.1 mm 3 mps 752 mmHg 76%
    17:00 +3°C° 0.1 mm 3 mps 752 mmHg 79%
    18:00 +3°C° 0.1 mm 3 mps 752 mmHg 82%
    19:00 +2°C° 0.1 mm 3 mps 752 mmHg 82%
    20:00 +2°C° 0.1 mm 3 mps 753 mmHg 83%
    21:00 +2°C° 0.1 mm 3 mps 753 mmHg 83%
    22:00 +2°C° 0 mm 3 mps 753 mmHg 83%
    23:00 +1°C° 0 mm 3 mps 753 mmHg 82%

    Tomorrow, 25 November, Saturday

    Time Temperature Precipitation Wind Pressure Humidity
    00:00 +1°C° 0 mm 3 mps 753 mmHg 82%
    01:00 +1°C° 0 mm 3 mps 753 mmHg 81%
    02:00 +1°C° 0 mm 3 mps 753 mmHg 80%
    03:00 0°C° 0 mm 3 mps 753 mmHg 80%
    04:00 0°C° 0 mm 3 mps 753 mmHg 79%
    05:00 0°C° 0 mm 3 mps 753 mmHg 79%
    06:00 0°C° 0 mm 3 mps 754 mmHg 79%
    07:00 -1°C° 0 mm 4 mps 754 mmHg 78%
    08:00 0°C° 0 mm 4 mps 755 mmHg 77%
    09:00 0°C° 0 mm 4 mps 755 mmHg 76%
    10:00 +1°C° 0 mm 5 mps 755 mmHg 71%
    11:00 +2°C° 0 mm 5 mps 756 mmHg 67%
    12:00 +3°C° 0 mm 6 mps 756 mmHg 62%
    13:00 +3°C° 0 mm 6 mps 756 mmHg 64%
    14:00 +2°C° 0 mm 6 mps 757 mmHg 67%
    15:00 +2°C° 0 mm 5 mps 757 mmHg 69%
    16:00 +1°C° 0 mm 5 mps 757 mmHg 71%
    17:00 +1°C° 0 mm 5 mps 758 mmHg 74%
    18:00 0°C° 0 mm 5 mps 758 mmHg 76%
    19:00 0°C° 0 mm 5 mps 758 mmHg 77%
    20:00 0°C° 0 mm 5 mps 758 mmHg 78%
    21:00 0°C° 0 mm 5 mps 759 mmHg 79%
    22:00 0°C° 0 mm 5 mps 759 mmHg 78%
    23:00 0°C° 0 mm 5 mps 759 mmHg 78%

    Day after tomorrow, 26 November, Sunday

    Time Temperature Precipitation Wind Pressure Humidity
    00:00 0°C° 0 mm 5 mps 759 mmHg 77%
    01:00 0°C° 0 mm 5 mps 760 mmHg 77%
    02:00 0°C° 0 mm 5 mps 760 mmHg 77%
    03:00 -1°C° 0 mm 6 mps 760 mmHg 77%
    04:00 -1°C° 0 mm 6 mps 760 mmHg 77%
    05:00 -1°C° 0 mm 6 mps 760 mmHg 76%
    06:00 -1°C° 0 mm 6 mps 761 mmHg 76%
    07:00 -1°C° 0 mm 6 mps 761 mmHg 76%
    08:00 -1°C° 0 mm 6 mps 762 mmHg 75%
    09:00 0°C° 0 mm 5 mps 762 mmHg 75%
    10:00 +1°C° 0 mm 6 mps 763 mmHg 72%
    11:00 +2°C° 0 mm 6 mps 763 mmHg 68%
    12:00 +3°C° 0 mm 6 mps 763 mmHg 65%
    13:00 +3°C° 0 mm 5 mps 763 mmHg 68%
    14:00 +3°C° 0 mm 5 mps 763 mmHg 71%
    15:00 +3°C° 0 mm 4 mps 764 mmHg 74%
    16:00 +3°C° 0 mm 4 mps 764 mmHg 77%
    17:00 +1°C° 0 mm 4 mps 764 mmHg 79%
    18:00 +2°C° 0 mm 3 mps 764 mmHg 82%
    19:00 +2°C° 0.2 mm 3 mps 763 mmHg 84%
    20:00 +3°C° 0.2 mm 3 mps 763 mmHg 86%
    21:00 +3°C° 0.2 mm 3 mps 763 mmHg 88%
    22:00 +4°C° 0.3 mm 4 mps 762 mmHg 88%
    23:00 +5°C° 0.3 mm 5 mps 762 mmHg 89%

    27 November, Monday

    Time Temperature Precipitation Wind Pressure Humidity
    00:00 +5°C° 0.3 mm 6 mps 761 mmHg 89%
    01:00 +5°C° 0 mm 7 mps 760 mmHg 88%
    02:00 +5°C° 0 mm 7 mps 759 mmHg 86%
    03:00 +5°C° 0 mm 8 mps 758 mmHg 85%
    04:00 +6°C° 0.4 mm 8 mps 758 mmHg 85%
    05:00 +6°C° 0.4 mm 8 mps 757 mmHg 86%
    06:00 +6°C° 0.4 mm 8 mps 757 mmHg 87%
    07:00 +5°C° 0.3 mm 7 mps 757 mmHg 85%
    08:00 +5°C° 0.3 mm 6 mps 757 mmHg 83%
    09:00 +5°C° 0.3 mm 5 mps 757 mmHg 82%
    10:00 +6°C° 0 mm 5 mps 757 mmHg 80%
    11:00 +6°C° 0 mm 5 mps 757 mmHg 78%
    12:00 +6°C° 0 mm 5 mps 757 mmHg 75%
    13:00 +6°C° 0.1 mm 5 mps 757 mmHg 76%
    14:00 +5°C° 0.1 mm 5 mps 757 mmHg 77%
    15:00 +5°C° 0.1 mm 5 mps 756 mmHg 79%
    16:00 +5°C° 0.1 mm 4 mps 756 mmHg 80%
    17:00 +4°C° 0.1 mm 4 mps 755 mmHg 81%
    18:00 +4°C° 0.1 mm 4 mps 755 mmHg 82%
    19:00 +4°C° 0 mm 4 mps 754 mmHg 83%
    20:00 +3°C° 0 mm 5 mps 753 mmHg 85%
    21:00 +3°C° 0 mm 5 mps 752 mmHg 86%
    22:00 +3°C° 0.5 mm 6 mps 751 mmHg 86%
    23:00 +4°C° 0.5 mm 6 mps 750 mmHg 86%

    28 November, Tuesday

    Time Temperature Precipitation Wind Pressure Humidity
    00:00 +4°C° 0.5 mm 7 mps 749 mmHg 86%
    01:00 +4°C° 0.6 mm 6 mps 748 mmHg 87%
    02:00 +4°C° 0.6 mm 6 mps 747 mmHg 88%
    03:00 +5°C° 0.6 mm 5 mps 746 mmHg 89%
    04:00 +3°C° 0.1 mm 6 mps 746 mmHg 85%
    05:00 +3°C° 0.1 mm 7 mps 746 mmHg 82%
    06:00 +1°C° 0.1 mm 8 mps 746 mmHg 78%
    07:00 +1°C° 0 mm 8 mps 746 mmHg 77%
    08:00 +1°C° 0 mm 8 mps 747 mmHg 77%
    09:00 +1°C° 0 mm 8 mps 747 mmHg 76%
    10:00 +1°C° 0.1 mm 9 mps 747 mmHg 73%
    11:00 +2°C° 0.1 mm 10 mps 747 mmHg 71%
    12:00 +3°C° 0.1 mm 10 mps 747 mmHg 68%
    13:00 +3°C° 0.2 mm 11 mps 747 mmHg 69%
    14:00 +3°C° 0.2 mm 11 mps 747 mmHg 69%
    15:00 +3°C° 0.2 mm 11 mps 747 mmHg 70%
    16:00 +3°C° 0.5 mm 11 mps 748 mmHg 70%
    17:00 +3°C° 0.5 mm 12 mps 748 mmHg 70%
    18:00 +3°C° 0.5 mm 12 mps 748 mmHg 71%
    19:00 +3°C° 0.8 mm 12 mps 749 mmHg 70%
    20:00 +3°C° 0.8 mm 12 mps 750 mmHg 70%
    21:00 +3°C° 0.8 mm 12 mps 751 mmHg 70%
    22:00 +3°C° 0.1 mm 11 mps 751 mmHg 72%
    23:00 +3°C° 0.1 mm 11 mps 752 mmHg 73%

    29 November, Wednesday

    Time Temperature Precipitation Wind Pressure Humidity
    00:00 +3°C° 0.1 mm 10 mps 753 mmHg 74%
    01:00 +3°C° 0.1 mm 10 mps 753 mmHg 74%
    02:00 +2°C° 0.1 mm 9 mps 754 mmHg 74%
    03:00 +2°C° 0.1 mm 8 mps 754 mmHg 74%
    04:00 +2°C° 0.1 mm 8 mps 755 mmHg 75%
    05:00 +2°C° 0.1 mm 8 mps 755 mmHg 75%
    06:00 +1°C° 0.1 mm 8 mps 755 mmHg 76%
    07:00 +2°C° 0.1 mm 7 mps 756 mmHg 76%
    08:00 +2°C° 0.1 mm 7 mps 756 mmHg 76%
    09:00 +2°C° 0.1 mm 7 mps 756 mmHg 77%
    10:00 +3°C° 0.1 mm 7 mps 757 mmHg 75%
    11:00 +3°C° 0.1 mm 7 mps 757 mmHg 73%
    12:00 +2°C° 0.1 mm 8 mps 757 mmHg 72%
    13:00 +3°C° 0.1 mm 7 mps 757 mmHg 73%
    14:00 +3°C° 0.1 mm 7 mps 757 mmHg 73%
    15:00 +2°C° 0.1 mm 7 mps 757 mmHg 74%
    16:00 +2°C° 0 mm 6 mps 758 mmHg 76%
    17:00 +1°C° 0 mm 6 mps 758 mmHg 77%
    18:00 -1°C° 0 mm 6 mps 758 mmHg 79%
    19:00 -1°C° 0 mm 6 mps 759 mmHg 79%
    20:00 -1°C° 0 mm 6 mps 759 mmHg 79%
    21:00 -1°C° 0 mm 5 mps 759 mmHg 79%
    22:00 -1°C° 0 mm 5 mps 759 mmHg 79%
    23:00 -1°C° 0 mm 5 mps 759 mmHg 80%
    Show more